| time (UTC) | temp C | wind direction | speed KPH | gust KPH | rain 1hr cm | rain 24hr cm | rain mn cm | humidity % | barometer mb |
| 20260508010032 | 11 | 0.0 | 0.0 | 0.00 | 0.00 | 0.00 | 33 | 1008.2 | |
| 20260508005530 | 12 | 0.0 | 0.0 | 0.00 | 0.00 | 0.00 | 33 | 1008.1 | |
| 20260508005029 | 12 | 294 | 0.0 | 1.6 | 0.00 | 0.00 | 0.00 | 32 | 1008.1 |
| 20260508004527 | 12 | 296 | 1.6 | 4.8 | 0.00 | 0.00 | 0.00 | 31 | 1008.1 |
| 20260508004025 | 12 | 310 | 0.0 | 1.6 | 0.00 | 0.00 | 0.00 | 31 | 1008.1 |
| 20260508003523 | 12 | 311 | 1.6 | 4.8 | 0.00 | 0.00 | 0.00 | 31 | 1008.0 |
| 20260508003021 | 12 | 306 | 1.6 | 4.8 | 0.00 | 0.00 | 0.00 | 30 | 1008.0 |
| 20260508002518 | 12 | 297 | 3.2 | 6.4 | 0.00 | 0.00 | 0.00 | 30 | 1008.0 |
| 20260508002056 | 13 | 299 | 4.8 | 16.1 | 0.00 | 0.00 | 0.00 | 30 | 1007.9 |
| 20260508001534 | 13 | 294 | 4.8 | 12.9 | 0.00 | 0.00 | 0.00 | 30 | 1007.9 |
| 20260508001032 | 13 | 306 | 3.2 | 9.7 | 0.00 | 0.00 | 0.00 | 30 | 1007.8 |
| 20260508000530 | 13 | 294 | 3.2 | 9.7 | 0.00 | 0.00 | 0.00 | 29 | 1007.8 |
| 20260508000028 | 13 | 291 | 4.8 | 11.3 | 0.00 | 0.00 | 0.00 | 30 | 1007.8 |
| 20260507235527 | 13 | 311 | 4.8 | 14.5 | 0.00 | 0.00 | 0.00 | 29 | 1007.8 |
| 20260507235045 | 13 | 318 | 3.2 | 14.5 | 0.00 | 0.00 | 0.00 | 30 | 1007.9 |
| 20260507234523 | 13 | 304 | 1.6 | 4.8 | 0.00 | 0.00 | 0.00 | 29 | 1007.9 |
| 20260507234021 | 13 | 302 | 1.6 | 9.7 | 0.00 | 0.00 | 0.00 | 29 | 1007.8 |
| 20260507233519 | 13 | 297 | 3.2 | 11.3 | 0.00 | 0.00 | 0.00 | 29 | 1007.7 |
| 20260507233017 | 13 | 307 | 3.2 | 9.7 | 0.00 | 0.00 | 0.00 | 29 | 1007.7 |
| 20260507232535 | 14 | 291 | 4.8 | 16.1 | 0.00 | 0.00 | 0.00 | 29 | 1007.9 |
| 20260507232033 | 14 | 303 | 4.8 | 12.9 | 0.00 | 0.00 | 0.00 | 29 | 1007.7 |
| 20260507231531 | 14 | 317 | 3.2 | 6.4 | 0.00 | 0.00 | 0.00 | 29 | 1007.9 |
| 20260507231029 | 14 | 311 | 4.8 | 24.1 | 0.00 | 0.00 | 0.00 | 28 | 1007.8 |
| 20260507230527 | 14 | 331 | 4.8 | 11.3 | 0.00 | 0.00 | 0.00 | 29 | 1007.8 |
| 20260507230026 | 14 | 295 | 4.8 | 16.1 | 0.00 | 0.00 | 0.00 | 30 | 1007.9 |
| 20260507225524 | 14 | 306 | 4.8 | 11.3 | 0.00 | 0.00 | 0.00 | 29 | 1007.8 |
| 20260507225022 | 14 | 294 | 4.8 | 17.7 | 0.00 | 0.00 | 0.00 | 29 | 1007.9 |
| 20260507224521 | 14 | 317 | 3.2 | 9.7 | 0.00 | 0.00 | 0.00 | 29 | 1007.9 |
| 20260507224018 | 14 | 298 | 4.8 | 14.5 | 0.00 | 0.00 | 0.00 | 29 | 1007.9 |
| 20260507223536 | 14 | 287 | 6.4 | 16.1 | 0.00 | 0.00 | 0.00 | 29 | 1007.9 |
| 20260507223034 | 15 | 305 | 4.8 | 12.9 | 0.00 | 0.00 | 0.00 | 28 | 1007.9 |
| 20260507222532 | 15 | 321 | 3.2 | 6.4 | 0.00 | 0.00 | 0.00 | 29 | 1007.8 |
| 20260507222031 | 15 | 271 | 3.2 | 12.9 | 0.00 | 0.00 | 0.00 | 30 | 1007.9 |
| 20260507221529 | 15 | 249 | 3.2 | 11.3 | 0.00 | 0.00 | 0.00 | 30 | 1007.9 |
| 20260507221027 | 15 | 270 | 3.2 | 9.7 | 0.00 | 0.00 | 0.00 | 31 | 1007.9 |
| 20260507220545 | 15 | 289 | 3.2 | 16.1 | 0.00 | 0.00 | 0.00 | 29 | 1008.0 |
| 20260507220023 | 15 | 327 | 6.4 | 17.7 | 0.00 | 0.00 | 0.00 | 28 | 1008.1 |
| 20260507215522 | 15 | 316 | 6.4 | 25.7 | 0.00 | 0.00 | 0.00 | 27 | 1007.8 |
| 20260507215020 | 15 | 312 | 4.8 | 17.7 | 0.00 | 0.00 | 0.00 | 30 | 1007.8 |
| 20260507214518 | 15 | 243 | 4.8 | 11.3 | 0.00 | 0.00 | 0.00 | 30 | 1007.9 |
| 20260507214035 | 15 | 321 | 3.2 | 17.7 | 0.00 | 0.00 | 0.00 | 29 | 1007.8 |
| 20260507213553 | 15 | 303 | 4.8 | 17.7 | 0.00 | 0.00 | 0.00 | 29 | 1007.8 |
| 20260507213031 | 15 | 300 | 4.8 | 14.5 | 0.00 | 0.00 | 0.00 | 30 | 1007.8 |
| 20260507212529 | 15 | 306 | 4.8 | 17.7 | 0.00 | 0.00 | 0.00 | 30 | 1007.9 |
| 20260507212027 | 15 | 310 | 4.8 | 14.5 | 0.00 | 0.00 | 0.00 | 30 | 1007.9 |
| 20260507211525 | 15 | 301 | 8.0 | 17.7 | 0.00 | 0.00 | 0.00 | 30 | 1007.9 |
| 20260507211023 | 15 | 298 | 8.0 | 24.1 | 0.00 | 0.00 | 0.00 | 30 | 1008.0 |
| 20260507210521 | 15 | 298 | 4.8 | 12.9 | 0.00 | 0.00 | 0.00 | 29 | 1007.8 |
| 20260507210019 | 15 | 325 | 3.2 | 9.7 | 0.00 | 0.00 | 0.00 | 31 | 1007.9 |
| 20260507205516 | 15 | 310 | 4.8 | 17.7 | 0.00 | 0.00 | 0.00 | 30 | 1008.1 |
| 20260507205034 | 15 | 316 | 6.4 | 14.5 | 0.00 | 0.00 | 0.00 | 30 | 1008.0 |
| 20260507204533 | 15 | 302 | 4.8 | 11.3 | 0.00 | 0.00 | 0.00 | 32 | 1008.2 |
| 20260507204030 | 15 | 272 | 3.2 | 11.3 | 0.00 | 0.00 | 0.00 | 31 | 1008.2 |
| 20260507203528 | 15 | 299 | 4.8 | 24.1 | 0.00 | 0.00 | 0.00 | 31 | 1008.3 |
| 20260507203046 | 15 | 319 | 3.2 | 6.4 | 0.00 | 0.00 | 0.00 | 32 | 1008.3 |
| 20260507202524 | 15 | 323 | 6.4 | 14.5 | 0.00 | 0.00 | 0.00 | 32 | 1008.3 |
| 20260507202042 | 15 | 302 | 4.8 | 11.3 | 0.00 | 0.00 | 0.00 | 33 | 1008.2 |
| 20260507201520 | 15 | 312 | 4.8 | 16.1 | 0.00 | 0.00 | 0.00 | 32 | 1008.4 |
| 20260507201037 | 15 | 291 | 3.2 | 11.3 | 0.00 | 0.00 | 0.00 | 32 | 1008.4 |
| 20260507200535 | 15 | 300 | 6.4 | 17.7 | 0.00 | 0.00 | 0.00 | 31 | 1008.5 |
| 20260507200053 | 15 | 335 | 4.8 | 20.9 | 0.00 | 0.00 | 0.00 | 33 | 1008.4 |
| 20260507195531 | 15 | 275 | 3.2 | 9.7 | 0.00 | 0.00 | 0.00 | 33 | 1008.5 |
| 20260507195029 | 15 | 296 | 4.8 | 9.7 | 0.00 | 0.00 | 0.00 | 33 | 1008.4 |
| 20260507194527 | 15 | 313 | 8.0 | 27.4 | 0.00 | 0.00 | 0.00 | 32 | 1008.6 |
| 20260507194025 | 15 | 316 | 3.2 | 20.9 | 0.00 | 0.00 | 0.00 | 34 | 1008.5 |
| 20260507193523 | 15 | 295 | 4.8 | 14.5 | 0.00 | 0.00 | 0.00 | 35 | 1008.6 |
| 20260507193022 | 15 | 313 | 6.4 | 20.9 | 0.00 | 0.00 | 0.00 | 36 | 1008.7 |
| 20260507192519 | 15 | 290 | 4.8 | 14.5 | 0.00 | 0.00 | 0.00 | 34 | 1008.7 |
| 20260507192036 | 15 | 293 | 4.8 | 12.9 | 0.00 | 0.00 | 0.00 | 35 | 1008.7 |
| 20260507191534 | 15 | 295 | 4.8 | 11.3 | 0.00 | 0.00 | 0.00 | 36 | 1008.9 |
| 20260507191033 | 15 | 318 | 6.4 | 14.5 | 0.00 | 0.00 | 0.00 | 34 | 1008.7 |
| 20260507190531 | 15 | 310 | 4.8 | 16.1 | 0.00 | 0.00 | 0.00 | 35 | 1008.8 |
| 20260507190029 | 14 | 239 | 4.8 | 16.1 | 0.00 | 0.00 | 0.00 | 35 | 1008.7 |
| 20260507185548 | 14 | 313 | 3.2 | 12.9 | 0.00 | 0.00 | 0.00 | 34 | 1008.8 |
| 20260507185026 | 14 | 324 | 8.0 | 25.7 | 0.00 | 0.00 | 0.00 | 34 | 1008.7 |
| 20260507184544 | 14 | 298 | 6.4 | 12.9 | 0.00 | 0.00 | 0.00 | 35 | 1008.6 |
| 20260507184042 | 14 | 307 | 4.8 | 14.5 | 0.00 | 0.00 | 0.00 | 35 | 1008.8 |
| 20260507183520 | 13 | 281 | 6.4 | 24.1 | 0.00 | 0.00 | 0.00 | 40 | 1008.8 |
| 20260507183018 | 13 | 286 | 3.2 | 14.5 | 0.00 | 0.00 | 0.00 | 40 | 1008.7 |
| 20260507182516 | 13 | 288 | 6.4 | 17.7 | 0.00 | 0.00 | 0.00 | 39 | 1008.8 |
| 20260507182034 | 13 | 301 | 3.2 | 20.9 | 0.00 | 0.00 | 0.00 | 43 | 1008.7 |
| 20260507181532 | 13 | 276 | 1.6 | 4.8 | 0.00 | 0.00 | 0.00 | 43 | 1008.8 |
| 20260507181031 | 13 | 293 | 3.2 | 4.8 | 0.00 | 0.00 | 0.00 | 42 | 1008.9 |
| 20260507180529 | 13 | 304 | 4.8 | 16.1 | 0.00 | 0.00 | 0.00 | 40 | 1009.1 |
| 20260507180027 | 14 | 324 | 4.8 | 12.9 | 0.00 | 0.00 | 0.00 | 42 | 1009.0 |
| 20260507175525 | 14 | 288 | 4.8 | 14.5 | 0.00 | 0.00 | 0.00 | 42 | 1009.1 |
| 20260507175043 | 13 | 230 | 3.2 | 11.3 | 0.00 | 0.00 | 0.00 | 45 | 1009.2 |
| 20260507174521 | 13 | 231 | 1.6 | 9.7 | 0.00 | 0.00 | 0.00 | 47 | 1009.2 |
| 20260507174020 | 13 | 250 | 4.8 | 14.5 | 0.00 | 0.00 | 0.00 | 45 | 1009.2 |
| 20260507173517 | 13 | 310 | 3.2 | 12.9 | 0.00 | 0.00 | 0.00 | 45 | 1009.2 |
| 20260507173035 | 12 | 289 | 3.2 | 11.3 | 0.00 | 0.00 | 0.00 | 46 | 1009.3 |
| 20260507172533 | 12 | 257 | 4.8 | 9.7 | 0.00 | 0.00 | 0.00 | 47 | 1009.4 |
| 20260507172031 | 12 | 275 | 3.2 | 14.5 | 0.00 | 0.00 | 0.00 | 47 | 1009.4 |
| 20260507171529 | 13 | 250 | 4.8 | 12.9 | 0.00 | 0.00 | 0.00 | 44 | 1009.6 |
| 20260507171028 | 13 | 296 | 4.8 | 14.5 | 0.00 | 0.00 | 0.00 | 46 | 1009.6 |
| 20260507170526 | 12 | 288 | 4.8 | 17.7 | 0.00 | 0.00 | 0.00 | 48 | 1009.6 |
| 20260507170025 | 12 | 283 | 1.6 | 6.4 | 0.00 | 0.00 | 0.00 | 48 | 1009.9 |
| 20260507165522 | 12 | 294 | 4.8 | 12.9 | 0.00 | 0.00 | 0.00 | 48 | 1009.8 |
| 20260507165021 | 12 | 318 | 3.2 | 9.7 | 0.00 | 0.00 | 0.00 | 48 | 1009.8 |
| 20260507164519 | 12 | 321 | 4.8 | 9.7 | 0.00 | 0.00 | 0.00 | 47 | 1009.7 |
| 20260507164036 | 12 | 254 | 1.6 | 6.4 | 0.00 | 0.00 | 0.00 | 49 | 1009.8 |
| 20260507163534 | 12 | 250 | 3.2 | 11.3 | 0.00 | 0.00 | 0.00 | 49 | 1009.9 |
| 20260507163032 | 12 | 278 | 3.2 | 12.9 | 0.00 | 0.00 | 0.00 | 50 | 1009.9 |
| 20260507162550 | 12 | 42 | 3.2 | 9.7 | 0.00 | 0.00 | 0.00 | 49 | 1009.9 |
| 20260507162028 | 12 | 316 | 1.6 | 4.8 | 0.00 | 0.00 | 0.00 | 50 | 1010.0 |
| 20260507161606 | 12 | 289 | 4.8 | 14.5 | 0.00 | 0.00 | 0.00 | 52 | 1010.1 |
| 20260507161024 | 11 | 263 | 1.6 | 3.2 | 0.00 | 0.00 | 0.00 | 55 | 1010.1 |
| 20260507160522 | 11 | 227 | 1.6 | 9.7 | 0.00 | 0.00 | 0.00 | 55 | 1010.1 |
| 20260507160020 | 11 | 225 | 3.2 | 11.3 | 0.00 | 0.00 | 0.00 | 54 | 1010.1 |
| 20260507155518 | 11 | 267 | 3.2 | 6.4 | 0.00 | 0.00 | 0.00 | 55 | 1010.1 |
| 20260507155016 | 11 | 262 | 3.2 | 6.4 | 0.00 | 0.00 | 0.00 | 55 | 1010.2 |
| 20260507154534 | 10 | 257 | 1.6 | 4.8 | 0.00 | 0.00 | 0.00 | 53 | 1010.2 |
| 20260507154032 | 10 | 280 | 3.2 | 11.3 | 0.00 | 0.00 | 0.00 | 55 | 1010.4 |
| 20260507153530 | 10 | 289 | 3.2 | 9.7 | 0.00 | 0.00 | 0.00 | 57 | 1010.4 |
| 20260507153028 | 10 | 298 | 3.2 | 6.4 | 0.00 | 0.00 | 0.00 | 57 | 1010.5 |
| 20260507152527 | 10 | 250 | 1.6 | 4.8 | 0.00 | 0.00 | 0.00 | 58 | 1010.5 |
| 20260507152025 | 10 | 270 | 3.2 | 4.8 | 0.00 | 0.00 | 0.00 | 58 | 1010.6 |
| 20260507151523 | 9 | 296 | 3.2 | 9.7 | 0.00 | 0.00 | 0.00 | 59 | 1010.7 |
| 20260507151021 | 9 | 285 | 3.2 | 9.7 | 0.00 | 0.00 | 0.00 | 62 | 1010.8 |
| 20260507150520 | 8 | 287 | 1.6 | 4.8 | 0.00 | 0.00 | 0.00 | 64 | 1010.8 |
| 20260507150017 | 8 | 282 | 1.6 | 4.8 | 0.00 | 0.00 | 0.00 | 66 | 1011.0 |
| 20260507145535 | 7 | 278 | 3.2 | 9.7 | 0.00 | 0.00 | 0.00 | 67 | 1011.0 |
| 20260507145033 | 7 | 271 | 0.0 | 3.2 | 0.00 | 0.00 | 0.00 | 71 | 1011.1 |
| 20260507144551 | 6 | 271 | 1.6 | 4.8 | 0.00 | 0.00 | 0.00 | 73 | 1011.1 |
| 20260507144029 | 6 | 0.0 | 0.0 | 0.00 | 0.00 | 0.00 | 74 | 1011.3 | |
| 20260507143548 | 6 | 0.0 | 0.0 | 0.00 | 0.00 | 0.00 | 74 | 1011.3 | |
| 20260507143026 | 5 | 0.0 | 0.0 | 0.00 | 0.00 | 0.00 | 74 | 1011.5 | |
| 20260507142524 | 5 | 0.0 | 0.0 | 0.00 | 0.00 | 0.00 | 76 | 1011.5 | |
| 20260507142023 | 5 | 0.0 | 0.0 | 0.00 | 0.00 | 0.00 | 77 | 1011.6 | |
| 20260507141541 | 4 | 0.0 | 0.0 | 0.00 | 0.00 | 0.00 | 78 | 1011.8 | |
| 20260507141019 | 3 | 0.0 | 0.0 | 0.00 | 0.00 | 0.00 | 79 | 1011.9 | |
| 20260507140516 | 3 | 0.0 | 0.0 | 0.00 | 0.00 | 0.00 | 79 | 1011.8 | |
| 20260507140034 | 3 | 0.0 | 0.0 | 0.00 | 0.00 | 0.00 | 80 | 1011.9 | |
| 20260507135532 | 3 | 0.0 | 0.0 | 0.00 | 0.00 | 0.00 | 80 | 1012.0 | |
| 20260507135030 | 3 | 0.0 | 0.0 | 0.00 | 0.00 | 0.00 | 80 | 1011.8 | |
| 20260507134529 | 3 | 0.0 | 0.0 | 0.00 | 0.00 | 0.00 | 81 | 1011.8 | |
| 20260507134027 | 3 | 0.0 | 0.0 | 0.00 | 0.00 | 0.00 | 81 | 1011.9 | |
| 20260507133525 | 3 | 0.0 | 0.0 | 0.00 | 0.00 | 0.00 | 82 | 1011.6 | |
| 20260507133023 | 2 | 0.0 | 0.0 | 0.00 | 0.00 | 0.00 | 83 | 1011.7 | |
| 20260507132521 | 2 | 0.0 | 0.0 | 0.00 | 0.00 | 0.00 | 83 | 1011.7 | |
| 20260507132020 | 2 | 0.0 | 0.0 | 0.00 | 0.00 | 0.00 | 84 | 1011.7 | |
| 20260507131537 | 1 | 0.0 | 0.0 | 0.00 | 0.00 | 0.00 | 84 | 1011.7 | |
| 20260507131035 | 1 | 0.0 | 0.0 | 0.00 | 0.00 | 0.00 | 84 | 1011.6 | |
| 20260507130533 | 1 | 0.0 | 0.0 | 0.00 | 0.00 | 0.00 | 84 | 1011.8 | |
| 20260507130052 | 1 | 0.0 | 0.0 | 0.00 | 0.00 | 0.00 | 85 | 1011.9 | |
| 20260507125530 | 0 | 0.0 | 0.0 | 0.00 | 0.00 | 0.00 | 85 | 1011.9 | |
| 20260507125028 | 0 | 0.0 | 0.0 | 0.00 | 0.00 | 0.00 | 85 | 1011.9 | |
| 20260507124527 | 0 | 0.0 | 0.0 | 0.00 | 0.00 | 0.00 | 85 | 1011.8 | |
| 20260507124025 | 0 | 0.0 | 0.0 | 0.00 | 0.00 | 0.00 | 85 | 1011.9 | |
| 20260507123523 | 0 | 0.0 | 0.0 | 0.00 | 0.00 | 0.00 | 86 | 1011.8 | |
| 20260507123041 | 0 | 0.0 | 0.0 | 0.00 | 0.00 | 0.00 | 86 | 1011.8 | |
| 20260507122519 | 0 | 0.0 | 0.0 | 0.00 | 0.00 | 0.00 | 85 | 1011.9 | |
| 20260507122016 | 0 | 0.0 | 0.0 | 0.00 | 0.00 | 0.00 | 85 | 1011.8 | |
| 20260507121614 | -1 | 0.0 | 0.0 | 0.00 | 0.00 | 0.00 | 86 | 1011.9 | |
| 20260507121032 | -1 | 0.0 | 0.0 | 0.00 | 0.00 | 0.00 | 86 | 1011.9 | |
| 20260507120530 | -1 | 0.0 | 0.0 | 0.00 | 0.00 | 0.00 | 86 | 1012.0 | |
| 20260507120029 | -1 | 0.0 | 0.0 | 0.00 | 0.00 | 0.00 | 86 | 1011.8 | |
| 20260507115527 | -1 | 0.0 | 0.0 | 0.00 | 0.00 | 0.00 | 86 | 1011.9 | |
| 20260507115045 | -1 | 0.0 | 0.0 | 0.00 | 0.00 | 0.00 | 86 | 1011.8 | |
| 20260507114543 | -1 | 0.0 | 0.0 | 0.00 | 0.00 | 0.00 | 86 | 1012.0 | |
| 20260507114022 | -1 | 0.0 | 0.0 | 0.00 | 0.00 | 0.00 | 86 | 1011.8 | |
| 20260507113520 | -1 | 0.0 | 0.0 | 0.00 | 0.00 | 0.00 | 86 | 1011.8 | |
| 20260507113037 | -1 | 0.0 | 0.0 | 0.00 | 0.00 | 0.00 | 85 | 1011.8 | |
| 20260507112515 | -2 | 0.0 | 0.0 | 0.00 | 0.00 | 0.00 | 85 | 1011.7 | |
| 20260507112034 | -2 | 0.0 | 0.0 | 0.00 | 0.00 | 0.00 | 85 | 1011.7 | |
| 20260507111532 | -2 | 0.0 | 0.0 | 0.00 | 0.00 | 0.00 | 85 | 1011.7 | |
| 20260507111030 | -2 | 0.0 | 0.0 | 0.00 | 0.00 | 0.00 | 85 | 1011.8 | |
| 20260507110528 | -2 | 0.0 | 0.0 | 0.00 | 0.00 | 0.00 | 85 | 1011.6 | |
| 20260507110047 | -2 | 0.0 | 0.0 | 0.00 | 0.00 | 0.00 | 85 | 1011.8 | |
| 20260507105525 | -2 | 0.0 | 0.0 | 0.00 | 0.00 | 0.00 | 85 | 1011.8 | |
| 20260507105023 | -2 | 0.0 | 0.0 | 0.00 | 0.00 | 0.00 | 85 | 1011.8 | |
| 20260507104521 | -1 | 0.0 | 0.0 | 0.00 | 0.00 | 0.00 | 85 | 1011.8 | |
| 20260507104019 | -1 | 0.0 | 0.0 | 0.00 | 0.00 | 0.00 | 85 | 1011.7 | |
| 20260507103517 | -1 | 0.0 | 0.0 | 0.00 | 0.00 | 0.00 | 85 | 1011.7 | |
| 20260507103034 | -2 | 0.0 | 0.0 | 0.00 | 0.00 | 0.00 | 85 | 1011.7 | |
| 20260507102533 | -1 | 0.0 | 0.0 | 0.00 | 0.00 | 0.00 | 85 | 1011.9 | |
| 20260507102031 | -1 | 0.0 | 0.0 | 0.00 | 0.00 | 0.00 | 85 | 1011.9 | |
| 20260507101529 | -1 | 0.0 | 0.0 | 0.00 | 0.00 | 0.00 | 85 | 1012.0 | |
| 20260507101027 | -1 | 0.0 | 0.0 | 0.00 | 0.00 | 0.00 | 85 | 1011.9 | |
| 20260507100525 | -1 | 0.0 | 0.0 | 0.00 | 0.00 | 0.00 | 85 | 1011.9 | |
| 20260507100023 | -1 | 0.0 | 0.0 | 0.00 | 0.00 | 0.00 | 85 | 1011.9 | |
| 20260507095522 | -1 | 0.0 | 0.0 | 0.00 | 0.00 | 0.00 | 85 | 1011.9 | |
| 20260507095020 | -1 | 0.0 | 0.0 | 0.00 | 0.00 | 0.00 | 85 | 1011.9 | |
| 20260507094518 | -1 | 0.0 | 0.0 | 0.00 | 0.00 | 0.00 | 85 | 1012.0 | |
| 20260507094015 | -1 | 0.0 | 0.0 | 0.00 | 0.00 | 0.00 | 85 | 1012.1 | |
| 20260507093534 | -1 | 0.0 | 0.0 | 0.00 | 0.00 | 0.00 | 84 | 1012.1 | |
| 20260507093032 | -1 | 0.0 | 0.0 | 0.00 | 0.00 | 0.00 | 84 | 1012.2 | |
| 20260507092550 | -1 | 0.0 | 0.0 | 0.00 | 0.00 | 0.00 | 84 | 1012.1 | |
| 20260507092029 | -1 | 0.0 | 0.0 | 0.00 | 0.00 | 0.00 | 84 | 1012.2 | |
| 20260507091526 | -1 | 0.0 | 0.0 | 0.00 | 0.00 | 0.00 | 84 | 1012.2 | |
| 20260507091025 | -1 | 0.0 | 0.0 | 0.00 | 0.00 | 0.00 | 84 | 1012.2 | |
| 20260507090523 | -1 | 0.0 | 0.0 | 0.00 | 0.00 | 0.00 | 84 | 1012.2 | |
| 20260507090021 | -1 | 0.0 | 0.0 | 0.00 | 0.00 | 0.00 | 83 | 1012.3 | |
| 20260507085520 | -1 | 0.0 | 0.0 | 0.00 | 0.00 | 0.00 | 83 | 1012.3 | |
| 20260507085058 | -1 | 0.0 | 0.0 | 0.00 | 0.00 | 0.00 | 83 | 1012.5 | |
| 20260507084535 | -1 | 0.0 | 0.0 | 0.00 | 0.00 | 0.00 | 83 | 1012.5 | |
| 20260507084034 | -1 | 0.0 | 0.0 | 0.00 | 0.00 | 0.00 | 83 | 1012.6 | |
| 20260507083552 | -1 | 0.0 | 0.0 | 0.00 | 0.00 | 0.00 | 83 | 1012.6 | |
| 20260507083030 | -1 | 0.0 | 0.0 | 0.00 | 0.00 | 0.00 | 83 | 1012.8 | |
| 20260507082528 | -1 | 0.0 | 0.0 | 0.00 | 0.00 | 0.00 | 83 | 1012.7 | |
| 20260507082026 | -1 | 0.0 | 0.0 | 0.00 | 0.00 | 0.00 | 83 | 1012.5 | |
| 20260507081525 | -1 | 0.0 | 0.0 | 0.00 | 0.00 | 0.00 | 83 | 1012.7 | |
| 20260507081023 | -1 | 0.0 | 0.0 | 0.00 | 0.00 | 0.00 | 83 | 1012.6 | |
| 20260507080521 | -1 | 0.0 | 0.0 | 0.00 | 0.00 | 0.00 | 83 | 1012.7 | |
| 20260507080019 | -1 | 0.0 | 0.0 | 0.00 | 0.00 | 0.00 | 82 | 1012.7 | |
| 20260507075516 | -1 | 0.0 | 0.0 | 0.00 | 0.00 | 0.00 | 82 | 1012.8 | |
| 20260507075054 | -1 | 0.0 | 0.0 | 0.00 | 0.00 | 0.00 | 82 | 1012.7 | |
| 20260507074533 | -1 | 0.0 | 0.0 | 0.00 | 0.00 | 0.00 | 82 | 1012.8 | |
| 20260507074031 | -1 | 0.0 | 0.0 | 0.00 | 0.00 | 0.00 | 82 | 1012.7 | |
| 20260507073529 | -1 | 0.0 | 0.0 | 0.00 | 0.00 | 0.00 | 82 | 1012.7 | |
| 20260507073027 | -1 | 0.0 | 0.0 | 0.00 | 0.00 | 0.00 | 82 | 1012.9 | |
| 20260507072526 | -1 | 0.0 | 0.0 | 0.00 | 0.00 | 0.00 | 82 | 1012.9 | |
| 20260507072024 | -1 | 0.0 | 0.0 | 0.00 | 0.00 | 0.00 | 82 | 1012.8 | |
| 20260507071522 | -1 | 0.0 | 0.0 | 0.00 | 0.00 | 0.00 | 82 | 1012.8 | |
| 20260507071020 | -1 | 0.0 | 0.0 | 0.00 | 0.00 | 0.00 | 82 | 1012.8 | |
| 20260507070518 | -1 | 0.0 | 0.0 | 0.00 | 0.00 | 0.00 | 82 | 1012.9 | |
| 20260507070016 | -1 | 0.0 | 0.0 | 0.00 | 0.00 | 0.00 | 82 | 1012.9 | |
| 20260507065534 | -1 | 0.0 | 0.0 | 0.00 | 0.00 | 0.00 | 82 | 1012.9 | |
| 20260507065032 | -1 | 0.0 | 0.0 | 0.00 | 0.00 | 0.00 | 81 | 1012.8 | |
| 20260507064530 | -1 | 0.0 | 0.0 | 0.00 | 0.00 | 0.00 | 81 | 1012.7 | |
| 20260507064028 | -1 | 0.0 | 0.0 | 0.00 | 0.00 | 0.00 | 81 | 1012.9 | |
| 20260507063546 | -1 | 0.0 | 0.0 | 0.00 | 0.00 | 0.00 | 82 | 1013.1 | |
| 20260507063025 | -1 | 0.0 | 0.0 | 0.00 | 0.00 | 0.00 | 82 | 1013.0 | |
| 20260507062523 | -1 | 0.0 | 0.0 | 0.00 | 0.00 | 0.00 | 81 | 1013.0 | |
| 20260507062021 | -1 | 0.0 | 0.0 | 0.00 | 0.00 | 0.00 | 81 | 1013.1 | |
| 20260507061539 | -1 | 0.0 | 0.0 | 0.00 | 0.00 | 0.00 | 81 | 1013.1 | |
| 20260507061017 | -1 | 0.0 | 0.0 | 0.00 | 0.00 | 0.00 | 81 | 1013.1 | |
| 20260507060535 | -1 | 0.0 | 0.0 | 0.00 | 0.00 | 0.00 | 81 | 1013.2 | |
| 20260507060033 | -1 | 0.0 | 0.0 | 0.00 | 0.00 | 0.00 | 82 | 1013.3 | |
| 20260507055531 | -1 | 0.0 | 0.0 | 0.00 | 0.00 | 0.00 | 81 | 1013.4 | |
| 20260507055030 | -1 | 0.0 | 0.0 | 0.00 | 0.00 | 0.00 | 80 | 1013.3 | |
| 20260507054528 | -1 | 0.0 | 0.0 | 0.00 | 0.00 | 0.00 | 79 | 1013.4 | |
| 20260507054026 | -1 | 0.0 | 0.0 | 0.00 | 0.00 | 0.00 | 79 | 1013.4 | |
| 20260507053544 | -1 | 0.0 | 0.0 | 0.00 | 0.00 | 0.00 | 80 | 1013.3 | |
| 20260507053023 | -1 | 0.0 | 0.0 | 0.00 | 0.00 | 0.00 | 80 | 1013.4 | |
| 20260507052521 | -1 | 0.0 | 0.0 | 0.00 | 0.00 | 0.00 | 80 | 1013.4 | |
| 20260507052019 | -1 | 0.0 | 0.0 | 0.00 | 0.00 | 0.00 | 80 | 1013.4 | |
| 20260507051536 | -1 | 0.0 | 0.0 | 0.00 | 0.00 | 0.00 | 80 | 1013.4 | |
| 20260507051034 | -1 | 0.0 | 0.0 | 0.00 | 0.00 | 0.00 | 80 | 1013.5 | |
| 20260507050533 | -1 | 0.0 | 0.0 | 0.00 | 0.00 | 0.00 | 80 | 1013.5 | |
| 20260507050031 | -1 | 0.0 | 0.0 | 0.00 | 0.00 | 0.00 | 79 | 1013.5 | |
| 20260507045529 | 0 | 0.0 | 0.0 | 0.00 | 0.00 | 0.00 | 78 | 1013.4 | |
| 20260507045027 | 0 | 0.0 | 0.0 | 0.00 | 0.00 | 0.00 | 77 | 1013.6 | |
| 20260507044526 | 0 | 0.0 | 0.0 | 0.00 | 0.00 | 0.00 | 77 | 1013.6 | |
| 20260507044024 | 0 | 0.0 | 0.0 | 0.00 | 0.00 | 0.00 | 78 | 1013.6 | |
| 20260507043522 | 0 | 0.0 | 0.0 | 0.00 | 0.00 | 0.00 | 77 | 1013.5 | |
| 20260507043020 | 0 | 0.0 | 0.0 | 0.00 | 0.00 | 0.00 | 78 | 1013.5 | |
| 20260507042518 | 0 | 0.0 | 0.0 | 0.00 | 0.00 | 0.00 | 77 | 1013.5 | |
| 20260507042016 | 0 | 0.0 | 0.0 | 0.00 | 0.00 | 0.00 | 77 | 1013.6 | |
| 20260507041534 | 0 | 0.0 | 0.0 | 0.00 | 0.00 | 0.00 | 76 | 1013.7 | |
| 20260507041032 | 0 | 0.0 | 0.0 | 0.00 | 0.00 | 0.00 | 76 | 1013.8 | |
| 20260507040530 | 0 | 0.0 | 0.0 | 0.00 | 0.00 | 0.00 | 75 | 1013.7 | |
| 20260507040029 | 0 | 0.0 | 0.0 | 0.00 | 0.00 | 0.00 | 74 | 1013.9 | |
| 20260507035526 | 0 | 0.0 | 0.0 | 0.00 | 0.00 | 0.00 | 73 | 1013.9 | |
| 20260507035025 | 0 | 0.0 | 0.0 | 0.00 | 0.00 | 0.00 | 73 | 1013.8 | |
| 20260507034543 | 0 | 0.0 | 0.0 | 0.00 | 0.00 | 0.00 | 73 | 1013.9 | |
| 20260507034041 | 0 | 0.0 | 0.0 | 0.00 | 0.00 | 0.00 | 74 | 1014.0 | |
| 20260507033519 | 0 | 0.0 | 0.0 | 0.00 | 0.00 | 0.00 | 74 | 1014.0 | |
| 20260507033016 | 0 | 0.0 | 0.0 | 0.00 | 0.00 | 0.00 | 71 | 1014.0 | |
| 20260507032534 | 0 | 0.0 | 0.0 | 0.00 | 0.00 | 0.00 | 72 | 1013.9 | |
| 20260507032032 | 0 | 0.0 | 0.0 | 0.00 | 0.00 | 0.00 | 72 | 1014.1 | |
| 20260507031531 | 1 | 0.0 | 0.0 | 0.00 | 0.00 | 0.00 | 72 | 1014.2 | |
| 20260507031029 | 1 | 0.0 | 0.0 | 0.00 | 0.00 | 0.00 | 72 | 1014.2 | |
| 20260507030527 | 1 | 0.0 | 0.0 | 0.00 | 0.00 | 0.00 | 72 | 1014.1 | |
| 20260507030025 | 1 | 0.0 | 0.0 | 0.00 | 0.00 | 0.00 | 70 | 1014.2 | |
| 20260507025523 | 1 | 0.0 | 0.0 | 0.00 | 0.00 | 0.00 | 71 | 1014.1 | |
| 20260507025021 | 1 | 0.0 | 0.0 | 0.00 | 0.00 | 0.00 | 70 | 1014.1 | |
| 20260507024519 | 1 | 0.0 | 0.0 | 0.00 | 0.00 | 0.00 | 70 | 1014.2 | |
| 20260507024016 | 1 | 0.0 | 0.0 | 0.00 | 0.00 | 0.00 | 70 | 1014.2 | |
| 20260507023554 | 1 | 0.0 | 0.0 | 0.00 | 0.00 | 0.00 | 70 | 1014.0 | |
| 20260507023032 | 1 | 0.0 | 0.0 | 0.00 | 0.00 | 0.00 | 69 | 1014.0 | |
| 20260507022530 | 1 | 0.0 | 0.0 | 0.00 | 0.00 | 0.00 | 68 | 1014.0 | |
| 20260507022028 | 2 | 0.0 | 0.0 | 0.00 | 0.00 | 0.00 | 68 | 1014.0 | |
| 20260507021546 | 2 | 0.0 | 0.0 | 0.00 | 0.00 | 0.00 | 67 | 1014.1 | |
| 20260507021024 | 2 | 0.0 | 0.0 | 0.00 | 0.00 | 0.00 | 65 | 1014.0 | |
| 20260507020522 | 2 | 0.0 | 0.0 | 0.00 | 0.00 | 0.00 | 66 | 1013.9 | |
| 20260507020020 | 2 | 0.0 | 0.0 | 0.00 | 0.00 | 0.00 | 64 | 1014.0 | |
| 20260507015517 | 3 | 0.0 | 0.0 | 0.00 | 0.00 | 0.00 | 62 | 1013.8 | |
| 20260507015035 | 3 | 0.0 | 0.0 | 0.00 | 0.00 | 0.00 | 60 | 1013.8 | |
| 20260507014533 | 3 | 0.0 | 0.0 | 0.00 | 0.00 | 0.00 | 59 | 1013.8 | |
| 20260507014031 | 3 | 0.0 | 0.0 | 0.00 | 0.00 | 0.00 | 58 | 1013.8 | |
| 20260507013529 | 4 | 0.0 | 0.0 | 0.00 | 0.00 | 0.00 | 58 | 1013.7 | |
| 20260507013026 | 4 | 0.0 | 0.0 | 0.00 | 0.00 | 0.00 | 56 | 1013.7 | |
| 20260507012525 | 5 | 0.0 | 0.0 | 0.00 | 0.00 | 0.00 | 55 | 1013.7 | |
| 20260507012022 | 5 | 0.0 | 0.0 | 0.00 | 0.00 | 0.00 | 55 | 1013.6 | |
| 20260507011521 | 5 | 0.0 | 0.0 | 0.00 | 0.00 | 0.00 | 53 | 1013.6 | |
| 20260507011039 | 5 | 0.0 | 0.0 | 0.00 | 0.00 | 0.00 | 52 | 1013.6 | |
| 20260507010515 | 5 | 0.0 | 0.0 | 0.00 | 0.00 | 0.00 | 51 | 1013.6 |